Charlottetown, Prince Edward Island

3:07 PM ADT on September 29, 2016 (GMT -0300)
Charlottetown

Weather History for CYYG - April, 2014

Change the Weather History Date:

Wednesday, April 9, 2014

  Actual Average Record
Temperature  
Mean Temperature 41 °F -  
Max Temperature 47 °F 38 °F 57 °F (2008)
Min Temperature 33 °F 26 °F 19 °F (2003)
Degree Days  
Heating Degree Days 24    
Moisture  
Dew Point 37 °F    
Average Humidity 84    
Maximum Humidity 100    
Minimum Humidity 54    
Precipitation  
Precipitation 0.00 in - - ()
Sea Level Pressure  
Sea Level Pressure 29.35 in    
Wind  
Wind Speed 9 mph ()    
Max Wind Speed 16 mph    
Max Gust Speed 24 mph    
Visibility 9.6 miles    
Events Fog , Rain    
Averages and records for this station are not official NWS values.
T = Trace of Precipitation, MM = Missing Value Source: Averaged Metar Reports

Daily Weather History Graph

Daily Weather History Graph

Search for Another Location

Airport or City:

Trip Planner

Search our weather history database for the weather conditions in past years. The results will help you decide how hot, cold, wet, or windy it might be!

Date:

Astronomy

Apr. 09, 2014 Rise Set
Actual Time 6:37 AM ADT 7:51 PM ADT
Civil Twilight 6:06 AM ADT 8:22 PM ADT
Nautical Twilight 5:28 AM ADT 9:00 PM ADT
Astronomical Twilight 4:49 AM ADT 9:40 PM ADT
Moon 2:19 PM ADT (4/9) 3:41 AM ADT (4/9)
Length of Visible Light 14h 16m
Length of Day
13h 14m
Waxing Gibbous, 71% of the Moon is Illuminated
Apr 9
Waxing Gibbous
Apr 15
Full
Apr 22
Last Quarter
Apr 29
New
May 7
First Quarter

Hourly Weather History & Observations

Time (ADT) Temp. Windchill Dew Point Humidity Pressure Visibility Wind Dir Wind Speed Gust Speed Precip Events Conditions
12:00 AM 44.6 °F 38.4 °F 44.6 °F 100% 29.27 in 0.5 mi South 12.7 mph - N/A   Light Drizzle
12:05 AM 44.6 °F 38.4 °F 44.6 °F 100% 29.27 in 0.2 mi South 12.7 mph - N/A Fog Light Drizzle
1:00 AM 44.6 °F 40.2 °F 44.6 °F 100% 29.27 in 0.2 mi SSW 8.1 mph - N/A Fog Light Drizzle
2:00 AM 44.6 °F 38.8 °F 44.6 °F 100% 29.26 in 0.2 mi SSW 11.5 mph - N/A Fog Light Drizzle
3:00 AM 43 °F - 43 °F 100% 29.24 in 0 mi South 6.9 mph - - Rain Light Drizzle
3:00 AM 42.8 °F 38.0 °F 42.8 °F 100% 29.24 in 0.2 mi SSW 8.1 mph - N/A Fog Light Drizzle
4:00 AM 42.8 °F 39.3 °F 42.8 °F 100% 29.24 in 0.2 mi SW 5.8 mph - N/A Fog Light Drizzle
4:39 AM 42.8 °F 41.1 °F 42.8 °F 100% 29.24 in 0.2 mi West 3.5 mph - N/A Fog Fog
5:00 AM 42.8 °F 37.5 °F 42.8 °F 100% 29.25 in 0.2 mi WSW 9.2 mph - N/A Fog Fog
5:35 AM 42.8 °F 35.1 °F 42.8 °F 100% 29.25 in 4.0 mi SW 16.1 mph 23.0 mph N/A   Overcast
6:00 AM 42.8 °F 36.2 °F 42.8 °F 100% 29.26 in 10.0 mi WSW 12.7 mph 24.2 mph N/A   Overcast
6:42 AM 41.0 °F 34.7 °F 41.0 °F 100% 29.27 in 1.5 mi WSW 10.4 mph - N/A   Overcast
7:00 AM 41.0 °F 34.7 °F 41.0 °F 100% 29.28 in 1.5 mi WSW 10.4 mph - N/A   Overcast
8:00 AM 41.0 °F 34.7 °F 41.0 °F 100% 29.31 in 3.0 mi WSW 10.4 mph 18.4 mph N/A   Overcast
9:00 AM 41 °F - 40 °F 96% 29.32 in 15 mi SW 11.5 mph - -   Partly Cloudy
9:00 AM 41.0 °F 34.3 °F 41.0 °F 100% 29.32 in 15.0 mi SW 11.5 mph - N/A   Overcast
9:21 AM 41.0 °F 33.9 °F 39.2 °F 93% 29.34 in 15.0 mi SW 12.7 mph 19.6 mph N/A   Mostly Cloudy
10:00 AM 41.0 °F 33.5 °F 37.4 °F 87% 29.37 in 15.0 mi WSW 13.8 mph - N/A   Overcast
11:00 AM 41.0 °F 33.9 °F 37.4 °F 87% 29.38 in 15.0 mi West 12.7 mph 19.6 mph N/A   Mostly Cloudy
12:00 PM 41.0 °F 35.8 °F 35.6 °F 81% 29.38 in 15.0 mi West 8.1 mph 18.4 mph N/A   Mostly Cloudy
1:00 PM 42.8 °F 36.6 °F 33.8 °F 70% 29.37 in 15.0 mi West 11.5 mph 19.6 mph N/A   Mostly Cloudy
2:00 PM 44.6 °F 39.7 °F 33.8 °F 66% 29.39 in 15.0 mi West 9.2 mph - N/A   Mostly Cloudy
3:00 PM 45 °F - 34 °F 54% 29.39 in 15 mi West 10.4 mph - -   Scattered Clouds
3:00 PM 44.6 °F 39.2 °F 33.8 °F 66% 29.39 in 15.0 mi West 10.4 mph - N/A   Scattered Clouds
4:00 PM 46.4 °F 41.9 °F 33.8 °F 62% 29.39 in 15.0 mi WSW 9.2 mph - N/A   Scattered Clouds
5:00 PM 46.4 °F 41.5 °F 33.8 °F 62% 29.41 in 15.0 mi WSW 10.4 mph - N/A   Scattered Clouds
6:00 PM 46.4 °F 41.5 °F 33.8 °F 62% 29.41 in 20.0 mi WSW 10.4 mph - N/A   Scattered Clouds
7:00 PM 44.6 °F 40.2 °F 33.8 °F 66% 29.43 in 15.0 mi WSW 8.1 mph - N/A   Partly Cloudy
8:00 PM 39.2 °F 33.0 °F 30.2 °F 70% 29.46 in 15.0 mi NNW 9.2 mph - N/A   Mostly Cloudy
9:00 PM 38 °F - 29 °F 60% 29.50 in 15 mi NNW 6.9 mph - -   Mostly Cloudy
9:00 PM 37.4 °F 32.1 °F 28.4 °F 70% 29.50 in 15.0 mi NNW 6.9 mph - N/A   Mostly Cloudy
9:30 PM 35.6 °F 27.5 °F 26.6 °F 70% 29.52 in 15.0 mi NNW 11.5 mph 18.4 mph N/A   Mostly Cloudy
10:00 PM 35.6 °F 27.1 °F 26.6 °F 70% 29.54 in 15.0 mi NNW 12.7 mph 21.9 mph N/A   Mostly Cloudy
11:00 PM 33.8 °F 24.3 °F 24.8 °F 70% 29.57 in 15.0 mi NNW 13.8 mph 21.9 mph N/A   Mostly Cloudy